[[{"header":{"parameterUnit":"m.s-1","parameterCategory":1,"la1":30.2991,"la2":30.254,"lo1":-89.0895,"lo2":-89.0444,"dy":0.0017,"dx":0.0017,"nx":28,"ny":28,"refTime":"2025-08-08T21:00:00:Z","depth":0,"parameterNumber":2,"parameterNumberName":"U-component_of_WINDS"},"data":[0,0,0,0,0,0,0,0,0,0,0,0,0,0,0,0,0,0,0,0,0,0,0,0,0,0,0,0,0,0,0,0,0,0,0,0,0,0,0,0,0,0,0,0,0,0,0,0,0,0,0,0,0,0,0,0,0,0,-2.7445,-2.7445,0,-2.7453,-2.7453,-2.7453,-2.7327,-2.7324,-2.7321,-2.7317,-2.7329,-2.7332,-2.7336,0,0,0,0,0,0,0,0,0,0,0,0,0,-2.7321,-2.7324,-2.7445,-2.7445,-2.7445,-2.7453,-2.7453,-2.7453,-2.7328,-2.7324,-2.732,-2.7316,-2.7328,-2.7332,-2.7336,0,0,0,0,0,0,0,0,0,0,0,0,0,-2.7357,-2.7325,-2.7445,-2.7383,-2.7378,-2.7453,-2.7453,-2.7453,-2.7329,-2.7324,-2.7319,-2.7314,-2.7326,-2.7331,-2.7336,-2.7472,0,0,-2.7352,-2.7355,0,0,0,0,0,0,0,0,-2.7355,-2.7361,-2.7392,-2.7388,-2.7382,-2.7384,-2.7414,-2.746,-2.733,-2.7348,-2.7317,-2.7311,-2.7351,-2.7354,-2.7367,-2.7472,-2.7473,-2.7353,-2.7356,-2.7358,-2.736,0,0,0,0,0,0,0,-2.7352,-2.736,-2.7448,-2.7393,-2.7386,-2.7356,-2.7355,-2.7422,-2.7378,-2.7346,-2.7337,-2.7339,-2.7348,-2.7362,-2.7367,-2.7473,-2.7353,-2.7357,-2.7361,-2.7363,-2.7688,-2.7693,0,0,0,0,0,0,-2.7358,-2.7359,-2.7448,-2.7448,-2.7355,-2.7362,-2.7361,-2.7388,-2.7377,-2.737,-2.7344,-2.7333,-2.7356,-2.7361,-2.7367,-2.7523,-2.7358,-2.7363,-2.7366,-2.7683,-2.7689,-2.7695,0,0,0,0,0,0,-2.7356,-2.7367,-2.7447,-2.7401,-2.7409,-2.737,-2.7401,-2.7391,-2.7406,-2.7376,-2.7367,-2.7367,-2.7352,-2.7359,-2.7446,-2.7522,-2.7366,-2.737,-2.7676,-2.7685,-2.7692,-2.7838,0,0,0,0,0,0,-2.7353,-2.7367,-2.7418,-2.7403,-2.7412,-2.7527,-2.7406,-2.7395,-2.7415,-2.7402,-2.7395,-2.7389,-2.7349,-2.7439,-2.7451,-2.7526,-2.7374,-2.7669,-2.768,-2.769,-2.7826,-2.785,-2.7871,0,0,0,0,0,-2.7349,-2.7459,-2.7421,-2.7432,-2.7474,-2.7531,-2.7536,-2.7487,-2.7422,-2.7472,-2.7453,-2.7389,-2.7512,-2.7449,-2.7462,-2.7539,-2.7664,-2.7677,-2.7689,-2.7816,-2.7846,-2.787,0,0,0,0,0,0,-2.7485,-2.7456,-2.7414,-2.7522,-2.753,-2.751,-2.7572,-2.752,-2.7547,-2.7533,-2.7471,-2.7471,-2.7568,-2.7562,-2.7493,-2.7669,-2.7577,-2.7592,-2.7669,-2.7696,-2.7718,-2.7717,-2.7379,0,0,0,0,0,-2.7527,-2.7575,-2.7548,-2.7647,-2.7653,-2.7613,-2.7635,-2.7596,-2.7602,-2.7605,-2.7592,-2.7601,-2.764,-2.7668,-2.7704,-2.7825,-2.7822,-2.7885,-2.7907,-2.7926,-2.794,-2.8002,-2.803,-2.7736,-2.7736,-2.7736,0,0,-2.7616,-2.7606,-2.7641,-2.7674,-2.7675,-2.7726,-2.7616,-2.7675,-2.7713,-2.7614,-2.7695,-2.7686,-2.7691,-2.7796,-2.7841,-2.7794,-2.802,-2.7941,-2.7956,-2.796,-2.8018,-2.8046,-2.8071,-2.7744,-2.7743,-2.7742,0,0,-2.7803,-2.7801,-2.7882,-2.7886,-2.7889,-2.7861,-2.7881,-2.7869,-2.7858,-2.7938,-2.7865,-2.7909,-2.798,-2.7987,-2.7999,-2.8189,-2.8131,-2.8202,-2.8318,-2.838,-2.8403,-2.8424,-2.849,-2.8515,-2.8217,-2.8217,-2.8217,0,-2.7913,-2.7986,-2.7931,-2.7995,-2.8011,-2.7924,-2.8006,-2.8012,-2.8027,-2.8041,-2.7988,-2.8074,-2.8072,-2.8176,-2.8222,-2.8236,-2.8256,-2.8202,-2.8404,-2.8424,-2.8442,-2.8505,-2.853,-2.8225,-2.8225,-2.8224,-2.8223,0,-2.8121,-2.8173,-2.8239,-2.8254,-2.8278,-2.8351,-2.8307,-2.8338,-2.8297,-2.8275,-2.8358,-2.8352,-2.8384,-2.8406,-2.8368,-2.8505,-2.8476,-2.8415,-2.832,-2.848,-2.8538,-2.8561,-2.8238,-2.8235,-2.8232,-2.823,0,0,-2.8394,-2.8377,-2.8402,-2.8407,-2.8404,-2.8444,-2.8513,-2.8543,-2.8571,-2.8584,-2.864,-2.8702,-2.8645,-2.866,-2.8621,-2.8676,-2.8825,-2.8608,-2.8607,-2.8647,-2.8975,-2.902,-2.9049,-2.8787,-2.8792,-2.8795,-2.8974,0,-2.8574,-2.869,-2.8642,-2.8762,-2.8809,-2.8727,-2.8786,-2.8791,-2.8773,-2.8811,-2.879,-2.8835,-2.8757,-2.8765,-2.8815,-2.8796,-2.889,-2.8783,-2.8838,-2.8841,-2.8838,-2.9079,-2.9127,-2.9297,-2.8997,-2.9001,-2.9003,0,-2.8801,-2.8822,-2.8947,-2.8934,-2.8952,-2.9007,-2.903,-2.9068,-2.9072,-2.9054,-2.9071,-2.902,-2.9086,-2.8993,-2.9084,-2.9013,-2.9033,-2.9027,-2.9032,-2.9035,-2.8931,-2.9087,-2.935,-2.9375,-2.9039,-2.9036,-2.9033,0,-2.8986,-2.9046,-2.9128,-2.9135,-2.9123,-2.9163,-2.916,-2.9159,-2.918,-2.9201,-2.9214,-2.9244,-2.926,-2.9284,-2.9242,-2.9178,-2.9339,-2.9243,-2.9326,-2.9328,-2.9363,-2.9361,-2.9631,-2.9379,-2.9378,-2.9378,-2.9377,0,-2.9192,-2.9271,-2.921,-2.9261,-2.9347,-2.9291,-2.9378,-2.9366,-2.9366,-2.9413,-2.9344,-2.939,-2.9332,-2.9373,-2.9341,-2.9421,-2.9429,-2.9417,-2.9407,-2.9422,-2.9424,-2.9434,-2.942,-2.9384,-2.9383,-2.9382,-2.938,0,-2.9413,-2.9375,-2.9459,-2.944,-2.9437,-2.9502,-2.9486,-2.9532,-2.9508,-2.9569,-2.958,-2.9543,-2.9587,-2.9548,-2.9591,-2.9569,-2.9675,-2.9649,-2.9673,-2.9665,-2.9751,-2.9743,-3.0036,-3.0071,-2.9797,-2.98,-2.9802,0,-2.9546,-2.9605,-2.9592,-2.9618,-2.9619,-2.9662,-2.9683,-2.9631,-2.9655,-2.9664,-2.9709,-2.9746,-2.9773,-2.9847,-2.9825,-2.9857,-2.9831,-2.9931,-2.9835,-2.9848,-2.9831,-2.9827,-2.9833,-2.9951,-2.9954,-2.9957,-2.9959,0,-2.9787,-2.9765,-2.9797,-2.9823,-2.985,-2.9868,-2.9881,-2.9906,-2.9853,-2.9884,-2.9927,-2.9948,-2.9991,-3.0029,-3.0054,-3.0051,-2.9997,-2.9989,-3.001,-3.0025,-3.0036,-3.003,-2.9725,-2.9983,-2.998,-2.9978,-2.9977,-2.9976,-2.9967,-3.0015,-3.0013,-3.0051,-3.0055,-3.0069,-3.011,-3.0092,-3.0127,-3.0156,-3.0124,-3.0176,-3.0178,-3.0206,-3.021,-3.025,-3.0208,-3.0239,-3.0246,-3.0254,-3.0266,-3.0031,-3.0255,-3.0254,-3.0253,-3.0253,-3.0252,0,-3.0202,-3.0197,-3.0233,-3.0252,-3.0282,-3.0227,-3.0239,-3.0268,-3.0314,-3.0321,-3.0348,-3.0398,-3.0435,-3.0415,-3.0447,-3.0483,-3.0459,-3.0493,-3.049,-3.049,-3.0303,-3.0281,-3.0512,-3.0512,-3.0512,-3.0512,-3.0512,-3.0512,-3.0328,-3.0406,-3.0385,-3.0464,-3.0458,-3.0508,-3.0519,-3.0531,-3.0535,-3.0593,-3.0623,-3.061,-3.0606,-3.0636,-3.0668,-3.0661,-3.0675,-3.0719,-3.0703,-3.0529,-3.0503,-3.0479,-3.0458,-3.0723,-3.0723,-3.0887,-3.0888,-3.0889]},{"header":{"parameterUnit":"m.s-1","parameterCategory":1,"la1":30.2991,"la2":30.254,"lo1":-89.0895,"lo2":-89.0444,"dy":0.0017,"dx":0.0017,"nx":28,"ny":28,"refTime":"2025-08-08T21:00:00:Z","depth":0,"parameterNumber":3,"parameterNumberName":"V-component_of_WINDS"},"data":[0,0,0,0,0,0,0,0,0,0,0,0,0,0,0,0,0,0,0,0,0,0,0,0,0,0,0,0,0,0,0,0,0,0,0,0,0,0,0,0,0,0,0,0,0,0,0,0,0,0,0,0,0,0,0,0,0,0,-1.44,-1.4401,0,-1.4465,-1.4466,-1.4466,-1.4512,-1.4513,-1.4513,-1.4513,-1.4579,-1.458,-1.4582,0,0,0,0,0,0,0,0,0,0,0,0,0,-1.4313,-1.4315,-1.44,-1.4401,-1.4401,-1.4465,-1.4466,-1.4467,-1.4512,-1.4513,-1.4513,-1.4514,-1.4579,-1.458,-1.4582,0,0,0,0,0,0,0,0,0,0,0,0,0,-1.4362,-1.4315,-1.44,-1.4432,-1.4435,-1.4465,-1.4466,-1.4467,-1.4512,-1.4513,-1.4513,-1.4514,-1.4578,-1.458,-1.4582,-1.4584,0,0,-1.4589,-1.459,0,0,0,0,0,0,0,0,-1.4359,-1.4365,-1.4426,-1.443,-1.4434,-1.4481,-1.4459,-1.4506,-1.4512,-1.4483,-1.4513,-1.4514,-1.4546,-1.4551,-1.4562,-1.4587,-1.459,-1.4589,-1.459,-1.4591,-1.4592,0,0,0,0,0,0,0,-1.4356,-1.4362,-1.4426,-1.4427,-1.4432,-1.4443,-1.445,-1.4468,-1.4511,-1.4486,-1.4489,-1.4496,-1.4548,-1.456,-1.4564,-1.4591,-1.4589,-1.4591,-1.4592,-1.4593,-1.4621,-1.462,0,0,0,0,0,0,-1.4347,-1.4359,-1.4424,-1.4428,-1.4397,-1.4444,-1.4452,-1.4465,-1.4511,-1.4518,-1.4496,-1.4498,-1.4556,-1.4561,-1.4566,-1.4571,-1.4591,-1.4593,-1.4594,-1.4621,-1.462,-1.462,0,0,0,0,0,0,-1.4345,-1.4353,-1.4421,-1.4394,-1.4404,-1.4445,-1.4459,-1.4466,-1.4478,-1.4518,-1.4526,-1.45,-1.4556,-1.4563,-1.4579,-1.4574,-1.4594,-1.4596,-1.4622,-1.4621,-1.462,-1.458,0,0,0,0,0,0,-1.4343,-1.4352,-1.4353,-1.4394,-1.4405,-1.4433,-1.4459,-1.4467,-1.4482,-1.4485,-1.4524,-1.4531,-1.4557,-1.4576,-1.4581,-1.4577,-1.4598,-1.4622,-1.4621,-1.462,-1.4582,-1.4578,-1.4575,0,0,0,0,0,-1.4339,-1.434,-1.4353,-1.4361,-1.4408,-1.4433,-1.4439,-1.447,-1.4481,-1.4483,-1.4508,-1.453,-1.4573,-1.4577,-1.4584,-1.458,-1.4623,-1.4622,-1.4621,-1.4584,-1.4579,-1.4575,0,0,0,0,0,0,-1.4297,-1.4346,-1.4361,-1.4375,-1.4399,-1.4441,-1.4444,-1.4464,-1.4486,-1.4488,-1.4525,-1.4533,-1.4545,-1.4564,-1.4568,-1.4584,-1.4601,-1.4601,-1.4571,-1.4566,-1.4562,-1.4557,-1.4599,0,0,0,0,0,-1.4289,-1.4306,-1.4347,-1.4355,-1.4367,-1.4403,-1.4415,-1.4436,-1.4463,-1.4474,-1.4501,-1.4525,-1.4545,-1.4557,-1.4577,-1.4585,-1.4594,-1.4586,-1.4582,-1.4579,-1.4578,-1.4583,-1.4579,-1.4616,-1.4616,-1.4616,0,0,-1.4273,-1.4302,-1.431,-1.4347,-1.4369,-1.4384,-1.4411,-1.4427,-1.4438,-1.4476,-1.4493,-1.4513,-1.4543,-1.4555,-1.4562,-1.4571,-1.457,-1.4577,-1.4574,-1.4575,-1.4581,-1.4578,-1.4574,-1.4615,-1.4615,-1.4615,0,0,-1.4252,-1.4276,-1.4284,-1.4305,-1.4338,-1.4362,-1.4363,-1.4402,-1.4417,-1.4434,-1.4462,-1.4476,-1.4509,-1.4529,-1.4544,-1.4529,-1.4549,-1.4534,-1.4514,-1.4518,-1.4515,-1.4513,-1.4507,-1.4504,-1.4534,-1.4533,-1.4533,0,-1.4228,-1.4253,-1.4286,-1.43,-1.4315,-1.4349,-1.4358,-1.4376,-1.4413,-1.4422,-1.4433,-1.4474,-1.4497,-1.4513,-1.451,-1.4521,-1.4523,-1.453,-1.4513,-1.4511,-1.4509,-1.4504,-1.4501,-1.4531,-1.4532,-1.4532,-1.4532,0,-1.4221,-1.4238,-1.4241,-1.4276,-1.4291,-1.4302,-1.4336,-1.4347,-1.4367,-1.439,-1.4406,-1.4435,-1.4461,-1.4466,-1.4486,-1.4485,-1.449,-1.4506,-1.4524,-1.4503,-1.4498,-1.4497,-1.4528,-1.4529,-1.453,-1.453,0,0,-1.4175,-1.4228,-1.4228,-1.4243,-1.4281,-1.4295,-1.4307,-1.4332,-1.4341,-1.4365,-1.4375,-1.4402,-1.4417,-1.4433,-1.4455,-1.4459,-1.4444,-1.4475,-1.4476,-1.4467,-1.4443,-1.443,-1.4427,-1.4457,-1.4457,-1.4457,-1.444,0,-1.4159,-1.4183,-1.4212,-1.4225,-1.424,-1.4273,-1.4283,-1.4307,-1.4329,-1.4344,-1.4368,-1.4385,-1.4404,-1.4414,-1.4419,-1.4444,-1.4439,-1.4446,-1.4466,-1.4467,-1.4457,-1.4425,-1.4411,-1.4394,-1.4439,-1.4438,-1.4438,0,-1.4143,-1.4165,-1.418,-1.4215,-1.4223,-1.4231,-1.4256,-1.4271,-1.4298,-1.4314,-1.4331,-1.4355,-1.4368,-1.4385,-1.4403,-1.4407,-1.4417,-1.4431,-1.4431,-1.4433,-1.445,-1.4425,-1.4389,-1.4386,-1.4436,-1.4436,-1.4436,0,-1.4106,-1.414,-1.4153,-1.4165,-1.4207,-1.4212,-1.423,-1.4258,-1.4271,-1.4293,-1.4301,-1.4324,-1.4337,-1.4354,-1.4383,-1.4392,-1.4398,-1.4417,-1.441,-1.4409,-1.4409,-1.4408,-1.4373,-1.4417,-1.4417,-1.4417,-1.4417,0,-1.4084,-1.4092,-1.4137,-1.4144,-1.4153,-1.4187,-1.4194,-1.4215,-1.4239,-1.4251,-1.4281,-1.4292,-1.433,-1.4344,-1.4367,-1.4378,-1.4384,-1.4396,-1.4402,-1.4393,-1.4391,-1.4399,-1.4401,-1.4416,-1.4416,-1.4417,-1.4417,0,-1.4045,-1.4075,-1.4091,-1.4129,-1.4139,-1.4144,-1.4176,-1.4184,-1.4207,-1.4222,-1.4227,-1.4263,-1.4281,-1.4312,-1.434,-1.4355,-1.4362,-1.4372,-1.4352,-1.4355,-1.4346,-1.4346,-1.4314,-1.4311,-1.4358,-1.4357,-1.4357,0,-1.4028,-1.4035,-1.4073,-1.4083,-1.41,-1.4116,-1.4129,-1.4162,-1.4174,-1.4206,-1.421,-1.4231,-1.4249,-1.4277,-1.4305,-1.4326,-1.4337,-1.4324,-1.434,-1.4331,-1.4335,-1.4334,-1.4334,-1.432,-1.432,-1.4319,-1.4319,0,-1.3995,-1.401,-1.4028,-1.4051,-1.4065,-1.4085,-1.4106,-1.4113,-1.4151,-1.4163,-1.4182,-1.4196,-1.4224,-1.4244,-1.4269,-1.4287,-1.4308,-1.4313,-1.4313,-1.4303,-1.4291,-1.4296,-1.4341,-1.4314,-1.4314,-1.4315,-1.4315,-1.4315,-1.3966,-1.3973,-1.4,-1.4019,-1.4038,-1.4057,-1.4066,-1.409,-1.4107,-1.4132,-1.4151,-1.4169,-1.4195,-1.4231,-1.4247,-1.4261,-1.4271,-1.427,-1.427,-1.4269,-1.4265,-1.4289,-1.4266,-1.4266,-1.4266,-1.4266,-1.4267,0,-1.3933,-1.3953,-1.397,-1.3998,-1.4012,-1.4032,-1.4056,-1.4066,-1.4082,-1.4105,-1.4122,-1.4143,-1.4163,-1.4192,-1.4214,-1.4219,-1.4229,-1.4224,-1.4223,-1.4226,-1.4255,-1.4253,-1.4215,-1.4215,-1.4215,-1.4215,-1.4215,-1.4215,-1.3918,-1.393,-1.3947,-1.3968,-1.3988,-1.4005,-1.4017,-1.4034,-1.4053,-1.4075,-1.4092,-1.4111,-1.4136,-1.4159,-1.4178,-1.4186,-1.4192,-1.4183,-1.4194,-1.422,-1.4225,-1.4229,-1.4227,-1.4184,-1.4184,-1.4163,-1.4163,-1.4163]}]]